Hourly Weather Kyzlas

Today, 21 October, Wednesday

Time Temperature Precipitation Wind Pressure Humidity
00:00 +2°C° 0 mm 2 mps 713 mmHg 86%
01:00 +2°C° 0 mm 1 mps 713 mmHg 87%
02:00 +2°C° 0 mm 1 mps 713 mmHg 88%
03:00 +1°C° 0 mm 1 mps 712 mmHg 90%
04:00 +1°C° 0 mm 1 mps 712 mmHg 89%
05:00 +1°C° 0 mm 1 mps 712 mmHg 89%
06:00 +1°C° 0 mm 1 mps 712 mmHg 88%
07:00 +2°C° 0 mm 1 mps 712 mmHg 81%
08:00 +4°C° 0 mm 1 mps 712 mmHg 74%
09:00 +5°C° 0 mm 1 mps 711 mmHg 67%
10:00 +7°C° 0 mm 1 mps 711 mmHg 60%
11:00 +9°C° 0 mm 1 mps 711 mmHg 54%
12:00 +11°C° 0 mm 1 mps 711 mmHg 47%
13:00 +11°C° 0 mm 1 mps 710 mmHg 49%
14:00 +10°C° 0 mm 0 mps 710 mmHg 50%
15:00 +10°C° 0 mm 0 mps 709 mmHg 52%
16:00 +8°C° 0 mm 0 mps 709 mmHg 56%
17:00 +6°C° 0 mm 0 mps 709 mmHg 60%
18:00 +5°C° 0 mm 0 mps 709 mmHg 64%
19:00 +4°C° 0 mm 0 mps 708 mmHg 66%
20:00 +4°C° 0 mm 0 mps 708 mmHg 68%
21:00 +4°C° 0 mm 0 mps 708 mmHg 71%
22:00 +3°C° 0 mm 0 mps 707 mmHg 73%
23:00 +3°C° 0 mm 0 mps 707 mmHg 76%

Tomorrow, 22 October, Thursday

Time Temperature Precipitation Wind Pressure Humidity
00:00 +2°C° 0 mm 0 mps 706 mmHg 79%
01:00 +3°C° 0 mm 1 mps 706 mmHg 79%
02:00 +3°C° 0 mm 1 mps 705 mmHg 80%
03:00 +3°C° 0 mm 1 mps 705 mmHg 80%
04:00 +2°C° 0 mm 1 mps 705 mmHg 79%
05:00 +2°C° 0 mm 1 mps 705 mmHg 77%
06:00 +1°C° 0 mm 0 mps 704 mmHg 75%
07:00 +4°C° 0 mm 1 mps 704 mmHg 68%
08:00 +6°C° 0 mm 1 mps 704 mmHg 61%
09:00 +7°C° 0 mm 1 mps 704 mmHg 54%
10:00 +9°C° 0 mm 1 mps 704 mmHg 50%
11:00 +9°C° 0 mm 2 mps 704 mmHg 46%
12:00 +12°C° 0 mm 2 mps 704 mmHg 42%
13:00 +12°C° 0 mm 1 mps 704 mmHg 43%
14:00 +12°C° 0 mm 1 mps 704 mmHg 45%
15:00 +12°C° 0 mm 1 mps 703 mmHg 47%
16:00 +11°C° 0 mm 1 mps 704 mmHg 49%
17:00 +9°C° 0 mm 1 mps 704 mmHg 52%
18:00 +8°C° 0 mm 1 mps 704 mmHg 54%
19:00 +6°C° 0 mm 2 mps 704 mmHg 59%
20:00 +5°C° 0 mm 3 mps 705 mmHg 64%
21:00 +5°C° 0 mm 4 mps 705 mmHg 68%
22:00 +4°C° 0 mm 4 mps 706 mmHg 74%
23:00 +4°C° 0 mm 4 mps 706 mmHg 80%

Day after tomorrow, 23 October, Friday

Time Temperature Precipitation Wind Pressure Humidity
00:00 +3°C° 0 mm 4 mps 706 mmHg 86%
01:00 +3°C° 0 mm 3 mps 706 mmHg 87%
02:00 +3°C° 0 mm 3 mps 707 mmHg 89%
03:00 +3°C° 0 mm 3 mps 707 mmHg 90%
04:00 +2°C° 0 mm 3 mps 708 mmHg 90%
05:00 +3°C° 0 mm 2 mps 708 mmHg 90%
06:00 +3°C° 0 mm 2 mps 709 mmHg 90%
07:00 +3°C° 0 mm 2 mps 709 mmHg 83%
08:00 +3°C° 0 mm 2 mps 709 mmHg 77%
09:00 +4°C° 0 mm 2 mps 709 mmHg 71%
10:00 +4°C° 0.1 mm 2 mps 709 mmHg 68%
11:00 +4°C° 0.1 mm 2 mps 709 mmHg 65%
12:00 +5°C° 0.1 mm 2 mps 709 mmHg 62%
13:00 +5°C° 0 mm 2 mps 709 mmHg 60%
14:00 +5°C° 0 mm 2 mps 709 mmHg 59%
15:00 +4°C° 0 mm 3 mps 709 mmHg 58%
16:00 +4°C° 0 mm 2 mps 709 mmHg 63%
17:00 +3°C° 0 mm 2 mps 709 mmHg 68%
18:00 +3°C° 0 mm 1 mps 709 mmHg 73%
19:00 +3°C° 0 mm 1 mps 710 mmHg 76%
20:00 +3°C° 0 mm 1 mps 710 mmHg 79%
21:00 +3°C° 0 mm 1 mps 710 mmHg 82%
22:00 +3°C° 0 mm 1 mps 710 mmHg 84%
23:00 +2°C° 0 mm 1 mps 710 mmHg 87%

24 October, Saturday

Time Temperature Precipitation Wind Pressure Humidity
00:00 +2°C° 0 mm 1 mps 710 mmHg 89%
01:00 +1°C° 0 mm 0 mps 710 mmHg 90%
02:00 +1°C° 0 mm 0 mps 710 mmHg 91%
03:00 0°C° 0 mm 0 mps 710 mmHg 92%
04:00 +2°C° 0 mm 1 mps 711 mmHg 92%
05:00 +2°C° 0 mm 1 mps 711 mmHg 92%
06:00 +1°C° 0 mm 2 mps 711 mmHg 92%
07:00 0°C° 0 mm 3 mps 712 mmHg 83%
08:00 -1°C° 0 mm 4 mps 712 mmHg 75%
09:00 -1°C° 0 mm 5 mps 713 mmHg 67%
10:00 -1°C° 0 mm 5 mps 713 mmHg 62%
11:00 0°C° 0 mm 5 mps 713 mmHg 58%
12:00 0°C° 0 mm 5 mps 713 mmHg 53%
13:00 0°C° 0 mm 5 mps 713 mmHg 53%
14:00 0°C° 0 mm 5 mps 714 mmHg 54%
15:00 0°C° 0 mm 4 mps 714 mmHg 54%
16:00 -1°C° 0 mm 4 mps 714 mmHg 62%
17:00 -1°C° 0 mm 3 mps 715 mmHg 69%
18:00 -2°C° 0 mm 3 mps 715 mmHg 77%
19:00 -4°C° 0 mm 3 mps 716 mmHg 76%
20:00 -4°C° 0 mm 3 mps 716 mmHg 76%
21:00 -4°C° 0 mm 4 mps 717 mmHg 75%
22:00 -4°C° 0.1 mm 4 mps 717 mmHg 77%
23:00 -5°C° 0.1 mm 4 mps 717 mmHg 78%

25 October, Sunday

Time Temperature Precipitation Wind Pressure Humidity
00:00 -5°C° 0.1 mm 4 mps 718 mmHg 80%
01:00 -5°C° 0.1 mm 4 mps 718 mmHg 78%
02:00 -5°C° 0.1 mm 4 mps 718 mmHg 76%
03:00 -5°C° 0.1 mm 4 mps 719 mmHg 74%
04:00 -6°C° 0 mm 3 mps 719 mmHg 76%
05:00 -6°C° 0 mm 3 mps 719 mmHg 77%
06:00 -6°C° 0 mm 3 mps 719 mmHg 79%
07:00 -6°C° 0 mm 3 mps 719 mmHg 73%
08:00 -5°C° 0 mm 4 mps 719 mmHg 67%
09:00 -4°C° 0 mm 4 mps 720 mmHg 61%
10:00 -3°C° 0 mm 4 mps 719 mmHg 57%
11:00 -3°C° 0 mm 4 mps 719 mmHg 53%
12:00 -2°C° 0 mm 4 mps 719 mmHg 49%
13:00 -2°C° 0 mm 4 mps 719 mmHg 50%
14:00 -1°C° 0 mm 3 mps 719 mmHg 50%
15:00 -1°C° 0 mm 3 mps 718 mmHg 51%
16:00 -2°C° 0 mm 2 mps 718 mmHg 57%
17:00 -1°C° 0 mm 1 mps 718 mmHg 63%
18:00 -3°C° 0 mm 0 mps 718 mmHg 69%
19:00 -3°C° 0 mm 0 mps 718 mmHg 69%
20:00 -3°C° 0 mm 0 mps 718 mmHg 68%
21:00 -3°C° 0 mm 0 mps 718 mmHg 68%
22:00 -3°C° 0 mm 0 mps 717 mmHg 68%
23:00 -3°C° 0 mm 0 mps 717 mmHg 68%

26 October, Monday

Time Temperature Precipitation Wind Pressure Humidity
00:00 -3°C° 0 mm 0 mps 716 mmHg 68%
01:00 -3°C° 0 mm 0 mps 716 mmHg 67%
02:00 -2°C° 0 mm 0 mps 715 mmHg 67%
03:00 -2°C° 0 mm 0 mps 715 mmHg 66%
04:00 -2°C° 0 mm 0 mps 715 mmHg 66%
05:00 -2°C° 0 mm 0 mps 714 mmHg 66%
06:00 -2°C° 0 mm 0 mps 714 mmHg 65%
07:00 -2°C° 0 mm 0 mps 714 mmHg 64%
08:00 -1°C° 0 mm 0 mps 713 mmHg 63%
09:00 -1°C° 0 mm 0 mps 713 mmHg 61%
10:00 0°C° 0 mm 0 mps 713 mmHg 61%
11:00 +2°C° 0 mm 1 mps 712 mmHg 62%
12:00 +2°C° 0 mm 1 mps 711 mmHg 62%
13:00 +3°C° 0 mm 1 mps 711 mmHg 64%
14:00 +3°C° 0 mm 1 mps 711 mmHg 67%
15:00 +3°C° 0 mm 1 mps 711 mmHg 69%
16:00 +3°C° 0.2 mm 1 mps 711 mmHg 76%
17:00 +2°C° 0.2 mm 1 mps 710 mmHg 82%
18:00 +1°C° 0.2 mm 1 mps 710 mmHg 89%
19:00 +2°C° 0.4 mm 1 mps 710 mmHg 92%
20:00 +1°C° 0.4 mm 2 mps 710 mmHg 95%
21:00 +1°C° 0.4 mm 2 mps 711 mmHg 98%
22:00 +1°C° 0.3 mm 2 mps 711 mmHg 97%
23:00 +1°C° 0.3 mm 3 mps 710 mmHg 97%

27 October, Tuesday

Time Temperature Precipitation Wind Pressure Humidity
00:00 +1°C° 0.3 mm 3 mps 710 mmHg 97%
01:00 +1°C° 0.2 mm 3 mps 711 mmHg 96%
02:00 0°C° 0.2 mm 3 mps 711 mmHg 94%
03:00 0°C° 0.2 mm 3 mps 712 mmHg 93%
04:00 0°C° 0.1 mm 3 mps 712 mmHg 93%
05:00 -1°C° 0.1 mm 2 mps 713 mmHg 92%
06:00 -2°C° 0.1 mm 2 mps 714 mmHg 91%
07:00 -1°C° 0.1 mm 2 mps 715 mmHg 87%
08:00 -1°C° 0.1 mm 2 mps 716 mmHg 84%
09:00 +1°C° 0.1 mm 2 mps 717 mmHg 80%
10:00 +1°C° 0.1 mm 2 mps 717 mmHg 77%
11:00 +2°C° 0.1 mm 2 mps 717 mmHg 73%
12:00 +2°C° 0.1 mm 2 mps 717 mmHg 70%
13:00 +2°C° 0 mm 2 mps 717 mmHg 72%
14:00 +3°C° 0 mm 1 mps 717 mmHg 74%
15:00 +2°C° 0 mm 1 mps 717 mmHg 76%
16:00 +1°C° 0 mm 1 mps 717 mmHg 81%
17:00 0°C° 0 mm 1 mps 717 mmHg 87%
18:00 0°C° 0 mm 1 mps 717 mmHg 92%
19:00 -1°C° 0 mm 1 mps 717 mmHg 92%
20:00 -1°C° 0 mm 1 mps 717 mmHg 93%
21:00 -2°C° 0 mm 1 mps 716 mmHg 93%
22:00 -2°C° 0 mm 1 mps 716 mmHg 93%
23:00 -2°C° 0 mm 1 mps 716 mmHg 93%
Show more

We Need Your Consent

Meteoprog and our Service Providers may store and access personal data such as cookies, device identifiers or other similar technologies on your device and process such data to personalise content and ads, as well as provide social media features and to analyse the traffic.

  • Store and/or access information on your device

    Cookies, device identifiers or other information can be stored or accessed on your device for the purposes indicated above.

  • Personalised ads and content, ad and content measurement, audience insights, and products development

    Ads and content can be personalised based on a profile. More data can be added to better personalise ads and content. Ad and content performance can be measured. Insights about the audience who saw the ads and content can be derived. Such data can be used to develop or improve user’s experience, systems and software.

By clicking ‘I Agree’ you will allow the use of indicated cookies, device identifiers, web beacons or other similar technologies. Your settings can be changed in the browser on your device.

For certain purposes, legitimate interests may be relied on, rather than consent. You can read more about this in our Privacy and Cookie Policy.